Regional Weather Roundup
Issued by NWS

Home | Current Version | Previous Version | Text Only | Print | Product List | Glossary Off
Versions: 1 2 3 4 5 6 7 8 9 10 11 12 13 14 15 16 17 18 19 20 21 22 23 24 25 26 27 28 29 30 31 32 33 34 35 36 37 38 39 40 41 42 43 44 45 46 47 48 49 50

000
ASUS43 KTOP 250808
RWRKS

WEATHER ROUNDUP FOR KANSAS
NATIONAL WEATHER SERVICE GOODLAND KS
300 AM CDT THU MAY 25 2017

NOTE:  "FAIR" INDICATES FEW OR NO CLOUDS BELOW 12,000 FEET WITH NO
SIGNIFICANT WEATHER AND/OR OBSTRUCTIONS TO VISIBILITY.

KSZ001>006-013>018-027>032-041>047-250900-
NORTHWEST KANSAS

CITY           SKY/WX    TMP DP  RH WIND       PRES   REMARKS
GOODLAND       CLEAR     55  45  68 S22G29    29.53F
HAYS           CLEAR     51  45  79 S12       29.61F
HILL CITY      PTCLDY    52  46  80 S8        29.59F
RUSSELL        CLEAR     52  45  77 S13       29.61S
$$

KSZ061>065-074>080-084>089-250900-
SOUTHWEST KANSAS

CITY           SKY/WX    TMP DP  RH WIND       PRES   REMARKS
DODGE CITY     PTCLDY    55  43  63 S24G32    29.62F
ELKHART          N/A     52  41  66 SE8         N/A
GARDEN CITY    CLEAR     54  43  66 S17G28    29.59F
GREAT BEND     CLEAR     52  44  74 S12       29.64R
LIBERAL        CLEAR     53  48  83 SE12      29.61F
PRATT          PTCLDY    50  42  72 S13       29.65F
$$

KSZ066>073-081>083-090>101-250900-
SOUTHEAST KANSAS

CITY           SKY/WX    TMP DP  RH WIND       PRES   REMARKS
CHANUTE        CLEAR     48  44  86 SE3       29.70F
COFFEYVILLE    CLEAR     47  47 100 CALM      29.71F
HUTCHINSON     CLEAR     50  44  80 SE8       29.65F
MEDICINE LODGE   N/A     53  44  71 SE6       29.66F
NEWTON         CLEAR     51  44  77 S12       29.67F
PARSONS        CLEAR     46  45  96 CALM      29.72F
WICHITA INTL   CLEAR     51  45  79 SE9       29.67F
WICHITA JABRA  CLEAR     50  43  77 S5        29.68F
WICHITA MCCONL CLEAR     51  43  72 SE8       29.67F
WINFIELD       CLEAR     51  44  77 E7        29.69F
$$

KSZ007>012-019>026-033>040-048>060-102>105-250900-
NORTHEAST KANSAS

CITY           SKY/WX    TMP DP  RH WIND       PRES   REMARKS
CONCORDIA      CLEAR     51  45  79 S13       29.63F
EMPORIA        CLEAR     47  45  93 S7        29.68F
LAWRENCE       CLEAR     46  46 100 CALM      29.70S
MANHATTAN      CLEAR     45  44  97 N3        29.66F
MARYSVILLE     CLEAR     46  45  93 SE3       29.66F
OLATHE IND     CLEAR     50  47  89 S3        29.70S
OLATHE EXE     CLEAR     48  48 100 CALM      29.70S
SALINA         CLEAR     49  45  86 S7        29.66S
TOPEKA BILLARD CLEAR     48  48 100 CALM      29.69S
TOPEKA FORBES  CLEAR     48  46  93 SE3       29.69S
$$




USA.gov is the U.S. government's official web portal to all federal, state and local government web resources and services.